wamiz.com alexa rank chart, wamiz.com alexa rank daily changes

wamiz.com alexa rank chart, wamiz.com alexa rank daily changes

wamiz.com
Actual rank:
33 237

RANK HISTORY

Date Rank Diff
2017/07/23 33 237 -225
2017/07/22 33 462 -336
2017/07/21 33 798 -639
2017/07/20 34 437 -168
2017/07/19 34 605 +161
2017/07/18 34 444 +699
2017/07/17 33 745 -594
2017/07/16 34 339 -761
2017/07/15 35 100 +138
2017/07/14 34 962 +340
2017/07/13 34 622 +172
2017/07/12 34 450 +363
2017/07/11 34 087 +349
2017/07/10 33 738 -632
2017/07/09 34 370 +184
2017/07/08 34 186 +182
2017/07/07 34 004 -21
2017/07/06 34 025 +937
2017/07/05 33 088 +428
2017/07/04 32 660 +329
2017/07/03 32 331 -72
2017/07/02 32 403 -45
2017/07/01 32 448 +435
2017/06/30 32 013 +215
2017/06/29 31 798 +611
2017/06/28 31 187 +84
2017/06/27 31 103 -198
2017/06/26 31 301 -497
2017/06/25 31 798 +287
2017/06/24 31 511 +97
2017/06/23 31 414 -9
2017/06/22 31 423 +225
2017/06/21 31 198 -33
2017/06/20 31 231 +26
2017/06/19 31 205 -230
2017/06/18 31 435 -303
2017/06/17 31 738 +419
2017/06/16 31 319 +278
2017/06/15 31 041 +362
2017/06/14 30 679 -438
2017/06/13 31 117 -104
2017/06/12 31 221 -394
2017/06/11 31 615 -513
2017/06/10 32 128 +46
2017/06/09 32 082 -196
2017/06/08 32 278 +288
2017/06/07 31 990 +11
2017/06/06 31 979 -342
2017/06/05 32 321 -402
2017/06/04 32 723 -85
2017/06/03 32 808 +76
2017/06/02 32 732 +269
2017/06/01 32 463 +208
2017/05/31 32 255 +22
2017/05/30 32 233 -126
2017/05/29 32 359 -145
2017/05/28 32 504 -251
2017/05/27 32 755 +55
2017/05/26 32 700 +147
2017/05/25 32 553 -56
2017/05/24 32 609

WIDGET FOR YOUR SITE

DOMAINS WITH THE NEAREST RANK

Domain Rank
austintexas.gov 33 232
exrx.net 33 233
skole.hr 33 234
greenhatworld.com 33 235
yablyk.com 33 236
wamiz.com 33 237
keisanki.me 33 238
studiorag.com 33 239
copts-united.com 33 240
mohw.gov.tw 33 241
prlu.pw 33 242

DOMAINS WITH THE NEAREST RANK BY TLD .com

Domain Rank
elaph.com 33 226
goarmy.com 33 227
ub-speeda.com 33 229
greenhatworld.com 33 235
yablyk.com 33 236
wamiz.com 33 237
studiorag.com 33 239
copts-united.com 33 240
rpgmakerweb.com 33 243
weipaipian.com 33 245
aps.com 33 247